Weather History for KMKG - December, 2012

Change the Weather History Date:

Saturday, December 29, 2012

  Actual Average Record
Temperature  
Mean Temperature 28 °F 27 °F  
Max Temperature 32 °F 32 °F 54 °F (1984)
Min Temperature 24 °F 22 °F -4 °F (1909)
Degree Days  
Heating Degree Days 37 38  
Month to date heating degree days 834 1004  
Since 1 July heating degree days 2134 2371  
Cooling Degree Days 0 0  
Month to date cooling degree days 0 0  
Year to date cooling degree days 925 566  
Moisture  
Dew Point 23 °F    
Average Humidity 78    
Maximum Humidity 92    
Minimum Humidity 63    
Precipitation  
Precipitation 0.14 in 0.07 in 1.13 in (1990)
Month to date precipitation 3.03 2.41  
Year to date precipitation 31.58 33.35  
Snow  
Snow 2.10 in 1.00 in 7.60 in (1961)
Month to date snowfall 7.2 26.9  
Since 1 July snowfall 8.0 33.1  
Snow Depth 1.00 in    
Sea Level Pressure  
Sea Level Pressure 29.96 in    
Wind  
Wind Speed 4 mph (NE)    
Max Wind Speed 12 mph    
Max Gust Speed 13 mph    
Visibility 6 miles    
Events Fog , Snow    
T = Trace of Precipitation, MM = Missing Value Source: NWS Daily Summary

Daily Weather History Graph

Daily Weather History Graph

Search for Another Location

Airport or City:

Trip Planner

Search our weather history database for the weather conditions in past years. The results will help you decide how hot, cold, wet, or windy it might be!

Date:

Astronomy

Dec. 29, 2012 Rise Set
Actual Time 8:16 AM EST 5:18 PM EST
Civil Twilight 7:44 AM EST 5:50 PM EST
Nautical Twilight 7:08 AM EST 6:26 PM EST
Astronomical Twilight 6:33 AM EST 7:01 PM EST
Moon 6:53 PM EST (12/29) 8:47 AM EST (12/29)
Length of Visible Light 10h 06m
Length of Day
9h 01m
Full, 98% of the Moon is Illuminated
Dec 29
Full
Jan 4
Last Quarter
Jan 11
New
Jan 18
First Quarter
Jan 26
Full

Hourly Weather History & Observations

Time (EST) Temp. Windchill Dew Point Humidity Pressure Visibility Wind Dir Wind Speed Gust Speed Precip Events Conditions
12:09 AM 28.4 °F 21.2 °F 24.8 °F 86% 29.92 in 7.0 mi East 6.9 mph - N/A   Overcast
12:55 AM 28.0 °F 20.8 °F 24.1 °F 85% 29.93 in 7.0 mi East 6.9 mph - N/A   Overcast
1:04 AM 28.4 °F 21.2 °F 24.8 °F 86% 29.90 in 7.0 mi East 6.9 mph - N/A   Overcast
1:55 AM 28.0 °F 20.8 °F 24.1 °F 85% 29.91 in 7.0 mi East 6.9 mph - N/A   Overcast
2:11 AM 28.4 °F 21.2 °F 24.8 °F 86% 29.89 in 7.0 mi East 6.9 mph - N/A   Overcast
2:55 AM 28.0 °F 20.8 °F 23.0 °F 81% 29.91 in 7.0 mi East 6.9 mph - N/A   Overcast
3:55 AM 27.0 °F 20.5 °F 23.0 °F 85% 29.91 in 6.0 mi East 5.8 mph - N/A   Overcast
4:15 AM 28.4 °F 21.2 °F 23.0 °F 80% 29.87 in 6.0 mi East 6.9 mph - N/A   Haze
4:44 AM 26.6 °F 20.0 °F 23.0 °F 86% 29.87 in 6.0 mi East 5.8 mph - N/A   Overcast
4:55 AM 27.0 °F 19.5 °F 23.0 °F 85% 29.89 in 6.0 mi East 6.9 mph - N/A   Overcast
5:55 AM 27.0 °F 23.0 °F 23.0 °F 85% 29.90 in 6.0 mi ENE 3.5 mph - 0.00 in Snow Light Snow
6:55 AM 26.6 °F 22.6 °F 23.0 °F 86% 29.88 in 3.0 mi NNE 3.5 mph - N/A Snow Light Snow
7:02 AM 26.6 °F 20.0 °F 23.0 °F 86% 29.88 in 2.5 mi NE 5.8 mph - 0.00 in Snow Light Snow
7:50 AM 26.6 °F 20.0 °F 21.2 °F 80% 29.88 in 4.0 mi NE 5.8 mph - 0.00 in Snow Light Snow
7:55 AM 27.0 °F 21.6 °F 21.9 °F 81% 29.91 in 3.0 mi NNE 4.6 mph - 0.00 in Snow Light Snow
8:26 AM 26.6 °F 21.2 °F 23.0 °F 86% 29.89 in 2.0 mi NNE 4.6 mph - 0.00 in Snow Light Snow
8:33 AM 26.6 °F 21.2 °F 23.0 °F 86% 29.89 in 1.2 mi North 4.6 mph - 0.00 in Snow Light Snow
8:55 AM 27.0 °F 21.6 °F 23.0 °F 85% 29.92 in 1.5 mi NNE 4.6 mph - 0.00 in Snow Light Snow
9:55 AM 27.0 °F 21.6 °F 23.0 °F 85% 29.92 in 1.8 mi NNE 4.6 mph - 0.01 in Snow Light Snow
10:38 AM 26.6 °F 20.0 °F 21.2 °F 80% 29.90 in 4.0 mi ENE 5.8 mph - 0.00 in Snow Light Snow
10:55 AM 28.0 °F 20.8 °F 21.9 °F 78% 29.93 in 8.0 mi ENE 6.9 mph - 0.00 in   Mostly Cloudy
11:55 AM 30.9 °F - 23.0 °F 72% 29.92 in 10.0 mi Calm Calm - N/A   Mostly Cloudy
12:14 PM 30.2 °F 25.4 °F 23.0 °F 75% 29.89 in 10.0 mi North 4.6 mph - N/A   Overcast
12:55 PM 30.9 °F 26.2 °F 23.0 °F 72% 29.92 in 10.0 mi NNW 4.6 mph - N/A   Overcast
1:19 PM 30.2 °F 25.4 °F 23.0 °F 75% 29.89 in 10.0 mi NNW 4.6 mph - N/A   Overcast
1:26 PM 30.2 °F 26.7 °F 23.0 °F 75% 29.89 in 10.0 mi NNW 3.5 mph - N/A   Overcast
1:48 PM 30.2 °F 25.4 °F 23.0 °F 75% 29.89 in 10.0 mi NNW 4.6 mph - N/A   Overcast
1:55 PM 30.9 °F 26.2 °F 23.0 °F 72% 29.92 in 10.0 mi North 4.6 mph - N/A   Overcast
2:55 PM 32.0 °F 27.5 °F 23.0 °F 69% 29.94 in 10.0 mi NNW 4.6 mph - N/A   Overcast
3:55 PM 32.0 °F 25.6 °F 21.0 °F 64% 29.96 in 10.0 mi North 6.9 mph - N/A   Overcast
4:55 PM 30.9 °F 26.2 °F 21.0 °F 67% 29.99 in 10.0 mi NNE 4.6 mph - N/A   Overcast
5:55 PM 30.0 °F - 19.9 °F 66% 30.01 in 10.0 mi Calm Calm - N/A   Mostly Cloudy
6:55 PM 26.1 °F - 21.0 °F 81% 30.03 in 10.0 mi Calm Calm - N/A   Overcast
7:55 PM 25.0 °F - 21.0 °F 85% 30.04 in 10.0 mi Calm Calm - N/A   Overcast
8:46 PM 26.6 °F - 21.2 °F 80% 30.03 in 2.5 mi Calm Calm - 0.00 in Snow Light Snow
8:55 PM 26.1 °F - 23.0 °F 88% 30.06 in 0.8 mi Calm Calm - 0.01 in Snow Light Snow
9:03 PM 26.6 °F - 23.0 °F 86% 30.03 in 0.5 mi Calm Calm - 0.01 in Fog , Snow Snow
9:14 PM 26.6 °F - 24.8 °F 93% 30.04 in 0.5 mi Calm Calm - 0.03 in Snow Light Snow
9:39 PM 26.6 °F 21.2 °F 24.8 °F 93% 30.04 in 0.5 mi East 4.6 mph - 0.04 in Snow Light Snow
9:55 PM 28.0 °F 24.2 °F 26.1 °F 92% 30.07 in 1.0 mi East 3.5 mph - 0.05 in Snow Light Snow
10:27 PM 28.4 °F - 26.6 °F 93% 30.06 in 0.5 mi Calm Calm - 0.02 in Fog , Snow Snow
10:46 PM 28.4 °F - 26.6 °F 93% 30.07 in 1.0 mi Calm Calm - 0.03 in Snow Light Snow
10:55 PM 28.0 °F - 25.0 °F 88% 30.10 in 1.0 mi Calm Calm - 0.04 in Snow Light Snow
11:08 PM 28.4 °F - 26.6 °F 93% 30.08 in 5.0 mi Calm Calm - 0.00 in   Overcast
11:16 PM 28.4 °F - 26.6 °F 93% 30.08 in 7.0 mi Calm Calm - 0.00 in   Overcast
11:55 PM 28.0 °F - 25.0 °F 88% 30.12 in 7.0 mi Calm Calm - 0.00 in   Overcast